| time (UTC) | temp C | wind direction | speed KPH | gust KPH | rain 1hr cm | rain 24hr cm | rain mn cm | humidity % | barometer mb |
| 20260902003121 | 37 | 239 | 4.8 | 8.0 | 0.00 | 0.00 | 0.00 | 34 | 1009.6 |
| 20260902002222 | 36 | 201 | 4.8 | 11.3 | 0.00 | 0.00 | 0.00 | 34 | 1009.8 |
| 20260902000422 | 37 | 227 | 4.8 | 14.5 | 0.00 | 0.00 | 0.00 | 34 | 1009.8 |
| 20260901235522 | 37 | 232 | 3.2 | 11.3 | 0.00 | 0.00 | 0.00 | 35 | 1009.9 |
| 20260901234622 | 37 | 159 | 3.2 | 11.3 | 0.00 | 0.00 | 0.00 | 35 | 1009.8 |
| 20260901232821 | 37 | 196 | 3.2 | 16.1 | 0.00 | 0.00 | 0.00 | 35 | 1010.1 |
| 20260901231921 | 37 | 190 | 4.8 | 12.9 | 0.00 | 0.00 | 0.00 | 36 | 1010.1 |
| 20260901231021 | 37 | 178 | 6.4 | 16.1 | 0.00 | 0.00 | 0.00 | 35 | 1010.2 |
| 20260901224322 | 37 | 154 | 6.4 | 12.9 | 0.00 | 0.00 | 0.00 | 36 | 1010.5 |
| 20260901223421 | 37 | 169 | 8.0 | 20.9 | 0.00 | 0.00 | 0.00 | 34 | 1010.4 |
| 20260901222521 | 37 | 156 | 6.4 | 16.1 | 0.00 | 0.00 | 0.00 | 36 | 1010.5 |
| 20260901221621 | 37 | 223 | 6.4 | 19.3 | 0.00 | 0.00 | 0.00 | 36 | 1010.7 |
| 20260901215821 | 38 | 271 | 4.8 | 14.5 | 0.00 | 0.00 | 0.00 | 36 | 1010.9 |
| 20260901214921 | 37 | 247 | 3.2 | 9.7 | 0.00 | 0.00 | 0.00 | 38 | 1011.0 |
| 20260901214021 | 38 | 191 | 3.2 | 11.3 | 0.00 | 0.00 | 0.00 | 38 | 1011.1 |
| 20260901212221 | 37 | 214 | 4.8 | 12.9 | 0.00 | 0.00 | 0.00 | 36 | 1011.5 |
| 20260901210421 | 37 | 210 | 4.8 | 14.5 | 0.00 | 0.00 | 0.00 | 38 | 1011.9 |
| 20260901205521 | 36 | 205 | 1.6 | 11.3 | 0.00 | 0.00 | 0.00 | 39 | 1012.0 |
| 20260901204621 | 36 | 238 | 3.2 | 9.7 | 0.00 | 0.00 | 0.00 | 41 | 1012.1 |
| 20260901203721 | 36 | 164 | 4.8 | 16.1 | 0.00 | 0.00 | 0.00 | 41 | 1012.2 |
| 20260901202821 | 36 | 175 | 6.4 | 16.1 | 0.00 | 0.00 | 0.00 | 40 | 1012.3 |
| 20260901201921 | 37 | 272 | 8.0 | 19.3 | 0.00 | 0.00 | 0.00 | 39 | 1012.5 |
| 20260901201021 | 36 | 269 | 4.8 | 16.1 | 0.00 | 0.00 | 0.00 | 41 | 1012.6 |
| 20260901200121 | 36 | 258 | 3.2 | 14.5 | 0.00 | 0.00 | 0.00 | 42 | 1012.7 |
| 20260901195221 | 36 | 217 | 3.2 | 12.9 | 0.00 | 0.00 | 0.00 | 42 | 1012.8 |
| 20260901194321 | 35 | 242 | 4.8 | 11.3 | 0.00 | 0.00 | 0.00 | 43 | 1012.9 |
| 20260901193421 | 35 | 190 | 4.8 | 9.7 | 0.00 | 0.00 | 0.00 | 43 | 1013.0 |
| 20260901192521 | 35 | 179 | 4.8 | 14.5 | 0.00 | 0.00 | 0.00 | 44 | 1013.1 |
| 20260901191621 | 35 | 148 | 3.2 | 11.3 | 0.00 | 0.00 | 0.00 | 45 | 1013.3 |
| 20260901190721 | 35 | 37 | 4.8 | 8.0 | 0.00 | 0.00 | 0.00 | 45 | 1013.4 |
| 20260901185821 | 34 | 157 | 4.8 | 14.5 | 0.00 | 0.00 | 0.00 | 44 | 1013.7 |
| 20260901184921 | 34 | 177 | 3.2 | 11.3 | 0.00 | 0.00 | 0.00 | 46 | 1013.8 |
| 20260901184021 | 34 | 236 | 4.8 | 11.3 | 0.00 | 0.00 | 0.00 | 46 | 1013.9 |
| 20260901183121 | 33 | 183 | 4.8 | 12.9 | 0.00 | 0.00 | 0.00 | 47 | 1014.1 |
| 20260901182221 | 33 | 191 | 4.8 | 17.7 | 0.00 | 0.00 | 0.00 | 46 | 1014.1 |
| 20260901181321 | 33 | 222 | 3.2 | 12.9 | 0.00 | 0.00 | 0.00 | 49 | 1014.2 |
| 20260901180421 | 33 | 103 | 6.4 | 12.9 | 0.00 | 0.00 | 0.00 | 49 | 1014.2 |
| 20260901175521 | 32 | 144 | 4.8 | 16.1 | 0.00 | 0.00 | 0.00 | 50 | 1014.3 |
| 20260901174621 | 33 | 210 | 6.4 | 12.9 | 0.00 | 0.00 | 0.00 | 50 | 1014.3 |
| 20260901172821 | 32 | 168 | 4.8 | 14.5 | 0.00 | 0.00 | 0.00 | 51 | 1014.5 |
| 20260901171921 | 32 | 179 | 3.2 | 12.9 | 0.00 | 0.00 | 0.00 | 51 | 1014.5 |
| 20260901170121 | 31 | 168 | 4.8 | 14.5 | 0.00 | 0.00 | 0.00 | 52 | 1014.4 |
| 20260901165221 | 31 | 202 | 3.2 | 14.5 | 0.00 | 0.00 | 0.00 | 53 | 1014.3 |
| 20260901164321 | 31 | 174 | 3.2 | 9.7 | 0.00 | 0.00 | 0.00 | 54 | 1014.3 |
| 20260901163421 | 30 | 191 | 3.2 | 8.0 | 0.00 | 0.00 | 0.00 | 55 | 1014.3 |
| 20260901161621 | 30 | 174 | 4.8 | 11.3 | 0.00 | 0.00 | 0.00 | 55 | 1014.2 |
| 20260901160721 | 30 | 145 | 3.2 | 12.9 | 0.00 | 0.03 | 0.00 | 55 | 1014.2 |
| 20260901155821 | 30 | 162 | 4.8 | 12.9 | 0.00 | 0.05 | 0.00 | 55 | 1014.1 |
| 20260901154021 | 29 | 129 | 4.8 | 11.3 | 0.00 | 0.15 | 0.00 | 56 | 1014.0 |
| 20260901151321 | 28 | 103 | 3.2 | 11.3 | 0.00 | 0.28 | 0.00 | 61 | 1013.8 |
| 20260901150421 | 28 | 89 | 1.6 | 4.8 | 0.00 | 0.28 | 0.00 | 61 | 1013.9 |
| 20260901145521 | 27 | 87 | 3.2 | 6.4 | 0.00 | 0.28 | 0.00 | 63 | 1013.9 |
| 20260901144621 | 27 | 79 | 3.2 | 8.0 | 0.00 | 0.28 | 0.00 | 64 | 1013.9 |
| 20260901143721 | 27 | 68 | 3.2 | 6.4 | 0.00 | 0.28 | 0.00 | 65 | 1013.8 |
| 20260901141921 | 26 | 83 | 3.2 | 6.4 | 0.00 | 0.30 | 0.00 | 68 | 1013.8 |
| 20260901135221 | 25 | 0 | 0.0 | 0.0 | 0.00 | 0.30 | 0.00 | 70 | 1013.8 |
| 20260901134321 | 25 | 0 | 0.0 | 0.0 | 0.00 | 0.30 | 0.00 | 70 | 1013.6 |
| 20260901133421 | 25 | 0 | 0.0 | 0.0 | 0.00 | 0.30 | 0.00 | 71 | 1013.4 |
| 20260901131621 | 25 | 70 | 3.2 | 6.4 | 0.00 | 0.30 | 0.00 | 71 | 1013.0 |
| 20260901130721 | 25 | 73 | 3.2 | 8.0 | 0.00 | 0.30 | 0.00 | 71 | 1013.0 |
| 20260901125821 | 25 | 69 | 3.2 | 8.0 | 0.00 | 0.30 | 0.00 | 70 | 1013.1 |
| 20260901124920 | 25 | 75 | 3.2 | 6.4 | 0.00 | 0.30 | 0.00 | 70 | 1013.2 |
| 20260901124021 | 25 | 73 | 1.6 | 6.4 | 0.00 | 0.30 | 0.00 | 70 | 1013.1 |
| 20260901122221 | 25 | 68 | 1.6 | 6.4 | 0.00 | 0.30 | 0.00 | 69 | 1013.0 |
| 20260901121321 | 25 | 66 | 1.6 | 6.4 | 0.00 | 0.30 | 0.00 | 69 | 1012.9 |
| 20260901120420 | 25 | 64 | 1.6 | 6.4 | 0.00 | 0.30 | 0.00 | 69 | 1012.7 |
| 20260901115520 | 25 | 64 | 1.6 | 4.8 | 0.00 | 0.30 | 0.00 | 69 | 1012.6 |
| 20260901114620 | 25 | 59 | 1.6 | 6.4 | 0.00 | 0.30 | 0.00 | 68 | 1012.6 |
| 20260901113720 | 25 | 56 | 0.0 | 3.2 | 0.00 | 0.30 | 0.00 | 69 | 1012.6 |
| 20260901112821 | 25 | 0 | 0.0 | 0.0 | 0.00 | 0.30 | 0.00 | 70 | 1012.5 |
| 20260901111921 | 25 | 0 | 0.0 | 0.0 | 0.00 | 0.30 | 0.00 | 70 | 1012.5 |
| 20260901105220 | 25 | 127 | 1.6 | 4.8 | 0.00 | 0.30 | 0.00 | 69 | 1012.4 |
| 20260901104321 | 25 | 126 | 1.6 | 3.2 | 0.00 | 0.30 | 0.00 | 68 | 1012.5 |
| 20260901103421 | 25 | 126 | 1.6 | 4.8 | 0.00 | 0.30 | 0.00 | 68 | 1012.6 |
| 20260901102520 | 25 | 127 | 0.0 | 4.8 | 0.00 | 0.30 | 0.00 | 68 | 1012.6 |
| 20260901101620 | 25 | 0 | 0.0 | 0.0 | 0.00 | 0.30 | 0.00 | 69 | 1012.6 |
| 20260901100720 | 25 | 0 | 0.0 | 0.0 | 0.00 | 0.30 | 0.00 | 69 | 1012.6 |
| 20260901095820 | 26 | 0 | 0.0 | 0.0 | 0.00 | 0.30 | 0.00 | 70 | 1012.5 |
| 20260901094920 | 25 | 0 | 0.0 | 0.0 | 0.00 | 0.30 | 0.00 | 70 | 1012.6 |
| 20260901094020 | 25 | 0 | 0.0 | 0.0 | 0.00 | 0.30 | 0.00 | 71 | 1012.6 |
| 20260901093120 | 25 | 0 | 0.0 | 0.0 | 0.00 | 0.30 | 0.00 | 70 | 1012.7 |
| 20260901092220 | 26 | 0 | 0.0 | 0.0 | 0.00 | 0.30 | 0.00 | 70 | 1012.8 |
| 20260901091320 | 26 | 0 | 0.0 | 0.0 | 0.00 | 0.30 | 0.00 | 70 | 1012.8 |
| 20260901090420 | 26 | 0 | 0.0 | 0.0 | 0.00 | 0.30 | 0.00 | 70 | 1012.9 |
| 20260901085520 | 26 | 0 | 0.0 | 0.0 | 0.00 | 0.30 | 0.00 | 69 | 1012.9 |
| 20260901084620 | 26 | 0 | 0.0 | 0.0 | 0.00 | 0.30 | 0.00 | 69 | 1012.8 |
| 20260901083720 | 26 | 0 | 0.0 | 0.0 | 0.00 | 0.30 | 0.00 | 69 | 1012.9 |
| 20260901082820 | 26 | 136 | 0.0 | 3.2 | 0.00 | 0.30 | 0.00 | 68 | 1012.9 |
| 20260901081920 | 26 | 0 | 0.0 | 0.0 | 0.00 | 0.30 | 0.00 | 67 | 1012.8 |
| 20260901081020 | 26 | 137 | 1.6 | 4.8 | 0.00 | 0.30 | 0.00 | 66 | 1012.8 |
| 20260901080120 | 26 | 141 | 1.6 | 4.8 | 0.00 | 0.30 | 0.00 | 66 | 1012.7 |
| 20260901075220 | 26 | 136 | 1.6 | 14.5 | 0.00 | 0.30 | 0.00 | 65 | 1012.7 |
| 20260901073420 | 26 | 0 | 0.0 | 0.0 | 0.00 | 0.30 | 0.00 | 67 | 1012.8 |
| 20260901072520 | 26 | 97 | 0.0 | 3.2 | 0.00 | 0.30 | 0.00 | 67 | 1012.7 |
| 20260901070720 | 26 | 108 | 1.6 | 9.7 | 0.00 | 0.30 | 0.00 | 66 | 1012.7 |
| 20260901065820 | 27 | 101 | 1.6 | 9.7 | 0.00 | 0.30 | 0.30 | 65 | 1012.5 |
| 20260901064920 | 27 | 99 | 1.6 | 6.4 | 0.00 | 0.30 | 0.30 | 64 | 1012.4 |
| 20260901064020 | 27 | 110 | 1.6 | 9.7 | 0.00 | 0.30 | 0.30 | 63 | 1012.3 |
| 20260901063120 | 27 | 137 | 1.6 | 3.2 | 0.00 | 0.30 | 0.30 | 62 | 1012.4 |
| 20260901062220 | 27 | 121 | 1.6 | 6.4 | 0.00 | 0.30 | 0.30 | 61 | 1012.2 |
| 20260901061320 | 27 | 114 | 3.2 | 8.0 | 0.00 | 0.30 | 0.30 | 61 | 1012.3 |
| 20260901060420 | 27 | 105 | 3.2 | 6.4 | 0.00 | 0.30 | 0.30 | 59 | 1012.3 |
| 20260901055520 | 27 | 107 | 1.6 | 6.4 | 0.00 | 0.30 | 0.30 | 58 | 1012.3 |
| 20260901053720 | 27 | 119 | 1.6 | 3.2 | 0.00 | 0.30 | 0.30 | 56 | 1012.3 |
| 20260901052820 | 28 | 119 | 1.6 | 6.4 | 0.00 | 0.30 | 0.30 | 56 | 1012.3 |
| 20260901051920 | 28 | 122 | 0.0 | 6.4 | 0.00 | 0.30 | 0.30 | 55 | 1012.2 |
| 20260901050120 | 28 | 129 | 0.0 | 4.8 | 0.00 | 0.30 | 0.30 | 54 | 1012.2 |
| 20260901045220 | 28 | 151 | 3.2 | 9.7 | 0.00 | 0.30 | 0.30 | 53 | 1012.3 |
| 20260901044320 | 28 | 139 | 1.6 | 9.7 | 0.00 | 0.30 | 0.30 | 53 | 1012.2 |
| 20260901043420 | 28 | 127 | 0.0 | 6.4 | 0.00 | 0.30 | 0.30 | 51 | 1012.2 |
| 20260901041620 | 28 | 160 | 3.2 | 8.0 | 0.00 | 0.30 | 0.30 | 49 | 1012.3 |
| 20260901035820 | 29 | 146 | 3.2 | 12.9 | 0.00 | 0.30 | 0.30 | 51 | 1011.9 |
| 20260901034920 | 29 | 153 | 3.2 | 6.4 | 0.00 | 0.30 | 0.30 | 51 | 1012.0 |
| 20260901033120 | 30 | 160 | 3.2 | 11.3 | 0.00 | 0.30 | 0.30 | 51 | 1011.8 |
| 20260901032220 | 30 | 181 | 3.2 | 9.7 | 0.00 | 0.30 | 0.30 | 48 | 1011.8 |
| 20260901031320 | 30 | 183 | 3.2 | 6.4 | 0.00 | 0.30 | 0.30 | 48 | 1011.6 |
| 20260901030420 | 30 | 177 | 3.2 | 9.7 | 0.00 | 0.30 | 0.30 | 47 | 1011.3 |
| 20260901025520 | 30 | 197 | 1.6 | 6.4 | 0.00 | 0.30 | 0.30 | 47 | 1011.3 |
| 20260901024620 | 29 | 228 | 0.0 | 3.2 | 0.00 | 0.30 | 0.30 | 48 | 1011.1 |
| 20260901023720 | 29 | 229 | 0.0 | 1.6 | 0.00 | 0.30 | 0.30 | 47 | 1011.1 |
| 20260901022820 | 30 | 229 | 1.6 | 3.2 | 0.00 | 0.30 | 0.30 | 47 | 1011.1 |
| 20260901021020 | 30 | 227 | 0.0 | 4.8 | 0.00 | 0.30 | 0.30 | 47 | 1010.9 |
| 20260901020120 | 30 | 0 | 0.0 | 0.0 | 0.00 | 0.30 | 0.30 | 46 | 1010.6 |
| 20260901014320 | 30 | 181 | 0.0 | 3.2 | 0.00 | 0.30 | 0.30 | 45 | 1010.7 |
| 20260901013420 | 30 | 181 | 0.0 | 3.2 | 0.00 | 0.30 | 0.30 | 46 | 1010.6 |
| 20260901012520 | 30 | 181 | 1.6 | 4.8 | 0.00 | 0.30 | 0.30 | 46 | 1010.5 |
| 20260901010720 | 31 | 189 | 1.6 | 8.0 | 0.00 | 0.30 | 0.30 | 45 | 1010.8 |
| 20260901005820 | 30 | 131 | 1.6 | 4.8 | 0.00 | 0.30 | 0.30 | 46 | 1010.8 |
| 20260901004920 | 31 | 122 | 1.6 | 12.9 | 0.00 | 0.30 | 0.30 | 44 | 1010.8 |
| 20260901004020 | 31 | 148 | 3.2 | 9.7 | 0.00 | 0.30 | 0.30 | 44 | 1010.8 |